Location: Central Coast NSW, Australia
(33.2407°S, 151.4316°E)
Time: 10:18:41
(UTC+10:00)

N. Korean satellite - Pass Details

Date: 28 March 2019
Orbit: 457 x 508 km, 97.2° (Epoch: 22 April)

Event Time Altitude Azimuth Distance (km) Brightness Sun altitude
Rises 05:37:40 0° 41° (NE) 2,606 10.7 -18.6°
Reaches altitude 10° 05:40:03 10° 56° (NE) 1,733 10.0 -18.1°
Maximum altitude 05:43:00 22° 108° (ESE) 1,151 9.4 -17.5°
Drops below altitude 10° 05:45:59 10° 160° (SSE) 1,754 9.7 -16.8°
Sets 05:48:25 0° 175° (S) 2,647 10.5 -16.3°
